Waarnemingen

Advertentie
Mijn weer
Mont-De-Marsan, Frankrijk (7607): temperatuur & dauwpunt: 13.07.2018 23:00:00 - 19.07.2018 23:00:00 (CEST)Mont-De-Marsan, Frankrijk (7607): temperatuur 5cm: 13.07.2018 23:00:00 - 19.07.2018 23:00:00 (CEST)Mont-De-Marsan, Frankrijk (7607): temperatuur -20cm & temperatuur -100cm: 13.07.2018 23:00:00 - 19.07.2018 23:00:00 (CEST)Mont-De-Marsan, Frankrijk (7607): windsnelheid & windstoten: 13.07.2018 23:00:00 - 19.07.2018 23:00:00 (CEST)Mont-De-Marsan, Frankrijk (7607): windrichting: 13.07.2018 23:00:00 - 19.07.2018 23:00:00 (CEST)Mont-De-Marsan, Frankrijk (7607): luchtdruk: 13.07.2018 23:00:00 - 19.07.2018 23:00:00 (CEST)Mont-De-Marsan, Frankrijk (7607): zicht: 13.07.2018 23:00:00 - 19.07.2018 23:00:00 (CEST)Mont-De-Marsan, Frankrijk (7607): Zonneschijnduur: 13.07.2018 23:00:00 - 19.07.2018 23:00:00 (CEST)Mont-De-Marsan, Frankrijk (7607): neerslag: 13.07.2018 23:00:00 - 19.07.2018 23:00:00 (CEST)
Datum & Tijd tt [°C] td [°C] tt 5cm [°C] tt -20cm [°C] tt -100cm [°C] ff [km/u] ff [kn] fx [km/u] fx [kn] dd ppp [hPa] vv [km] sd [min] rr [mm]
19.07.2018 23:00:00 - - - - - - - - - - - - - -
19.07.2018 22:00:00 23,8 19,3 22,7 27,9 22,4 10 5 19 10 WZW 1015,9 28 0 0,0
19.07.2018 21:00:00 24,7 19,1 24,4 27,8 22,4 8 5 26 14 WNW 1015,4 39 4 0,0
19.07.2018 20:00:00 26,0 19,6 26,5 27,5 22,4 18 10 33 18 WNW 1014,9 44 41 0,0
19.07.2018 19:00:00 26,8 20,2 27,9 27,2 22,4 22 12 35 19 NW 1014,4 60 26 0,0
19.07.2018 18:00:00 31,1 18,5 36,0 26,7 22,4 12 6 19 10 WNW 1013,8 52 60 0,0
19.07.2018 17:00:00 31,0 18,0 37,3 26,3 22,5 11 6 19 11 W 1013,8 55 60 0,0
19.07.2018 16:00:00 30,7 19,4 38,3 25,8 22,5 6 4 18 10 OZO 1014,1 41 60 0,0
19.07.2018 15:00:00 29,8 18,9 34,5 25,3 22,4 10 5 19 10 ONO 1014,5 37 36 0,0
19.07.2018 14:00:00 28,4 18,5 34,3 25,0 22,4 7 4 20 11 OZO 1015,1 38 52 0,0
19.07.2018 13:00:00 27,7 19,0 34,7 24,8 22,5 6 3 16 9 Z 1015,5 20 60 0,0
19.07.2018 12:00:00 26,6 19,7 30,3 24,7 22,5 6 4 15 8 OZO 1015,8 9 55 0,0
19.07.2018 11:00:00 24,7 19,1 25,6 24,7 22,4 4 2 14 7 Z 1016,3 20 32 0,0
19.07.2018 10:00:00 23,3 19,5 26,3 24,8 22,4 6 3 13 7 ZZW 1016,6 20 43 0,0
19.07.2018 09:00:00 22,1 19,3 20,8 24,9 22,4 4 2 8 4 Z 1016,5 20 49 0,0
19.07.2018 08:00:00 19,1 18,1 17,9 25,1 22,4 0 0 5 3 N 1016,4 19 0 0,2
19.07.2018 07:00:00 17,2 16,6 12,7 25,3 22,5 2 1 5 3 O 1016,4 7 0 0,0
19.07.2018 06:00:00 16,3 15,5 13,1 25,6 22,5 0 0 3 2 N 1016,0 20 0 0,0
19.07.2018 05:00:00 16,6 16,0 12,9 25,8 22,5 0 0 6 4 N 1015,7 27 0 0,0
19.07.2018 04:00:00 16,4 15,3 13,5 26,0 22,5 5 3 6 3 ONO 1015,9 20 0 0,0
19.07.2018 03:00:00 17,2 15,9 14,3 26,2 22,5 5 3 9 5 WNW 1016,3 37 0 0,0
19.07.2018 02:00:00 17,7 16,2 14,9 26,4 22,5 3 1 8 4 NNO 1016,2 37 0 0,0
19.07.2018 01:00:00 18,6 16,4 15,1 26,5 22,5 3 2 7 4 NNO 1016,2 54 0 0,0
19.07.2018 00:00:00 20,1 16,5 17,4 26,6 22,5 4 2 14 7 W 1016,4 60 0 0,0
18.07.2018 23:00:00 23,2 16,7 21,3 26,7 22,5 7 4 12 7 ZW 1016,4 60 0 0,0
18.07.2018 22:00:00 25,2 17,9 23,3 26,7 22,5 5 3 15 8 ZZO 1015,7 12 11 0,0
18.07.2018 21:00:00 26,5 18,1 26,2 26,6 22,5 7 4 18 10 OZO 1015,3 60 18 0,0
18.07.2018 20:00:00 27,6 17,7 28,3 26,5 22,5 13 7 23 12 ONO 1014,5 60 36 0,0
18.07.2018 19:00:00 28,5 17,7 26,6 26,2 22,5 10 6 14 8 O 1013,6 60 9 0,0
18.07.2018 18:00:00 28,7 16,6 29,2 26,0 22,5 10 6 26 14 O 1013,8 58 12 0,0
18.07.2018 17:00:00 30,4 16,8 31,6 25,7 22,5 11 6 18 10 NO 1013,4 60 53 0,0
18.07.2018 16:00:00 28,6 17,8 31,2 25,3 22,5 9 5 16 9 ONO 1013,5 60 11 0,0
18.07.2018 15:00:00 28,4 17,6 31,2 25,1 22,5 11 6 24 13 O 1013,4 60 26 0,0
18.07.2018 14:00:00 27,9 17,7 29,6 24,8 22,5 14 7 27 15 O 1013,2 47 5 0,0
18.07.2018 13:00:00 28,0 16,9 30,6 24,7 22,5 18 10 32 17 O 1013,7 25 36 0,0
18.07.2018 12:00:00 27,8 17,6 31,3 24,6 22,5 18 10 34 19 O 1014,2 28 60 0,0
18.07.2018 11:00:00 26,3 17,4 28,7 24,6 22,5 13 7 29 16 O 1014,4 31 60 0,0
18.07.2018 10:00:00 23,9 17,9 24,8 24,7 22,5 14 7 20 11 O 1015,1 35 60 0,0
18.07.2018 09:00:00 20,7 17,1 20,4 24,9 22,5 9 5 14 7 O 1015,4 20 57 0,0
18.07.2018 08:00:00 17,9 16,8 16,0 25,0 22,5 4 2 11 6 O 1015,7 25 46 0,0
18.07.2018 07:00:00 16,4 15,9 14,8 25,2 22,5 7 4 10 6 ONO 1016,0 17 0 0,0
18.07.2018 06:00:00 16,8 16,3 15,2 25,5 22,5 5 3 8 4 ONO 1016,2 19 0 0,0
18.07.2018 05:00:00 17,4 16,6 16,0 25,6 22,5 3 2 13 7 O 1016,4 22 0 0,0
18.07.2018 04:00:00 18,0 17,2 16,8 25,8 22,5 9 5 14 8 ONO 1016,4 34 0 0,0
18.07.2018 03:00:00 18,5 17,3 17,6 26,0 22,5 8 5 13 7 NO 1016,8 40 0 0,0
18.07.2018 02:00:00 19,2 17,7 18,4 26,2 22,5 9 5 20 11 ONO 1017,1 38 0 0,0
18.07.2018 01:00:00 19,4 17,9 17,1 26,4 22,5 8 4 12 6 NNO 1017,4 51 0 0,0
18.07.2018 00:00:00 20,1 17,9 18,7 26,5 22,5 6 3 11 6 NO 1017,7 59 0 0,0
17.07.2018 23:00:00 20,6 17,8 18,2 26,6 22,5 7 4 10 5 NNO 1017,6 60 0 0,0
17.07.2018 22:00:00 22,9 17,6 19,2 26,6 22,6 2 1 5 3 N 1017,4 20 12 0,0
17.07.2018 21:00:00 26,4 16,0 27,6 26,5 22,6 4 2 12 6 ZO 1017,3 60 58 0,0
17.07.2018 20:00:00 27,1 15,5 31,4 26,3 22,6 7 4 13 7 OZO 1017,3 60 58 0,0
17.07.2018 19:00:00 27,1 15,5 29,6 26,1 22,6 4 2 16 9 O 1017,3 60 53 0,0
17.07.2018 18:00:00 27,5 16,8 27,7 25,8 22,6 6 3 17 9 OZO 1017,9 60 23 0,0
17.07.2018 17:00:00 27,9 16,2 30,2 25,5 22,6 5 3 14 8 N 1018,2 60 55 0,0
17.07.2018 16:00:00 26,4 15,4 29,3 25,1 22,6 6 3 17 9 ZZO 1019,0 60 12 0,0
17.07.2018 15:00:00 25,8 16,4 27,7 24,8 22,6 6 4 14 8 ZW 1019,3 60 33 0,0
17.07.2018 14:00:00 26,3 16,8 31,3 24,5 22,6 7 4 17 9 ZZO 1019,8 20 52 0,0
17.07.2018 13:00:00 24,6 16,8 28,3 24,3 22,6 10 5 18 10 OZO 1020,3 60 31 0,0
17.07.2018 12:00:00 24,6 17,1 26,8 24,1 22,6 5 3 10 5 ZZO 1020,6 60 45 0,0
17.07.2018 11:00:00 23,1 16,6 24,0 24,1 22,6 3 1 12 6 ZO 1020,8 58 39 0,0
17.07.2018 10:00:00 21,7 17,3 24,4 24,2 22,6 6 3 14 7 WNW 1021,1 60 53 0,0
17.07.2018 09:00:00 20,6 17,2 20,5 24,3 22,6 5 3 9 5 ZW 1021,0 54 48 0,0
17.07.2018 08:00:00 18,6 16,7 17,0 24,5 22,6 3 1 6 3 Z 1020,9 24 31 0,0
17.07.2018 07:00:00 17,1 16,1 16,0 24,7 22,6 3 2 6 3 Z 1021,0 20 0 0,0
17.07.2018 06:00:00 17,1 16,3 14,9 24,9 22,6 4 2 6 3 Z 1020,8 23 0 0,0
17.07.2018 05:00:00 17,4 16,1 16,5 25,0 22,6 0 0 4 2 N 1020,9 18 0 0,0
17.07.2018 04:00:00 17,1 16,0 15,5 25,2 22,6 0 0 7 4 N 1021,1 24 0 0,0
17.07.2018 03:00:00 17,8 16,0 16,3 25,5 22,6 2 1 8 4 WZW 1021,2 21 0 0,0
17.07.2018 02:00:00 18,1 16,1 16,3 25,7 22,6 5 3 9 5 WZW 1021,6 19 0 0,0
17.07.2018 01:00:00 18,7 16,3 17,1 25,9 22,6 5 3 11 6 WZW 1021,8 18 0 0,0
17.07.2018 00:00:00 19,5 16,7 18,2 26,0 22,6 8 4 15 8 WZW 1021,7 37 0 0,0
16.07.2018 23:00:00 20,3 17,5 19,2 26,2 22,6 8 4 18 10 WZW 1021,3 41 0 0,0
16.07.2018 22:00:00 20,9 17,7 20,5 26,3 22,6 13 7 21 11 W 1020,7 45 0 0,0
16.07.2018 21:00:00 21,7 17,1 21,4 26,4 22,6 12 7 34 18 WNW 1020,1 54 44 0,0
16.07.2018 20:00:00 23,1 16,9 23,2 26,3 22,6 21 12 37 20 WNW 1019,4 24 54 0,0
16.07.2018 19:00:00 24,1 17,6 23,9 26,3 22,6 21 11 41 22 WNW 1018,5 60 36 0,0
16.07.2018 18:00:00 25,5 16,6 26,0 26,2 22,6 23 12 44 24 WNW 1018,2 15 56 0,0
16.07.2018 17:00:00 25,8 18,0 25,1 26,1 22,6 22 12 37 20 WNW 1017,7 17 29 0,0
16.07.2018 16:00:00 24,6 17,8 25,3 26,1 22,5 23 13 42 23 W 1017,4 16 30 0,0
16.07.2018 15:00:00 22,4 20,3 19,6 26,2 22,5 11 6 28 15 ZW 1017,4 18 13 7,6
16.07.2018 14:00:00 21,9 18,7 22,7 26,3 22,5 16 9 24 13 WZW 1017,7 8 8 0,0
16.07.2018 13:00:00 19,8 18,1 19,0 26,4 22,5 9 5 20 11 ZW 1017,4 8 0 0,0
16.07.2018 12:00:00 18,2 16,9 17,2 26,6 22,5 9 5 20 11 WZW 1017,4 19 0 0,4
16.07.2018 11:00:00 18,2 16,7 17,2 26,7 22,5 16 9 23 12 W 1017,0 15 0 1,8
16.07.2018 10:00:00 20,6 18,0 20,9 26,9 22,5 2 1 8 4 NO 1016,3 13 0 0,0
16.07.2018 09:00:00 20,2 17,2 19,9 27,1 22,5 3 2 14 7 ZO 1016,2 19 0 0,0
16.07.2018 08:00:00 19,6 16,8 18,0 27,3 22,5 6 3 9 5 Z 1016,1 20 0 0,0
16.07.2018 07:00:00 18,4 16,6 17,8 27,5 22,5 6 3 16 9 N 1015,0 20 0 0,0
16.07.2018 06:00:00 18,7 16,3 18,0 27,7 22,5 12 6 20 11 WNW 1014,8 28 0 0,0
16.07.2018 05:00:00 19,3 16,9 18,8 27,9 22,4 13 7 18 10 W 1014,4 26 0 0,0
16.07.2018 04:00:00 20,2 17,2 19,2 28,1 22,4 9 5 18 10 W 1014,7 26 0 0,0
16.07.2018 03:00:00 21,2 19,5 20,6 28,3 22,4 12 7 21 11 W 1015,1 14 0 0,0
16.07.2018 02:00:00 22,0 20,3 21,2 28,5 22,4 10 5 17 9 WZW 1015,1 11 0 0,0
16.07.2018 01:00:00 21,7 20,2 21,3 28,7 22,4 8 5 18 10 NNW 1014,3 11 0 0,0
16.07.2018 00:00:00 22,4 20,1 21,3 28,8 22,4 9 5 15 8 W 1015,1 16 0 0,0
15.07.2018 23:00:00 22,8 20,0 22,0 29,0 22,4 11 6 21 11 W 1014,9 22 0 0,0
15.07.2018 22:00:00 23,9 19,8 23,1 29,0 22,4 12 7 25 14 W 1014,1 26 0 0,0
15.07.2018 21:00:00 25,4 20,2 24,9 28,9 22,4 15 8 24 13 W 1013,7 26 0 0,0
15.07.2018 20:00:00 27,0 20,6 26,9 28,8 22,4 9 5 22 12 WZW 1013,5 30 0 0,0
15.07.2018 19:00:00 28,0 20,3 28,7 28,5 22,4 14 8 27 15 WZW 1013,4 35 33 0,0
15.07.2018 18:00:00 29,5 20,9 32,4 28,1 22,4 17 9 25 14 W 1013,2 20 55 0,0
15.07.2018 17:00:00 30,8 20,4 32,9 27,7 22,4 11 6 23 12 WZW 1013,0 20 53 0,0
15.07.2018 16:00:00 30,3 20,5 32,6 27,3 22,4 10 5 21 11 W 1013,4 20 48 0,0
15.07.2018 15:00:00 29,7 19,7 35,7 26,9 22,4 9 5 19 10 ZW 1014,0 22 57 0,0
15.07.2018 14:00:00 28,8 19,4 33,8 26,7 22,3 8 4 21 11 W 1014,4 20 57 0,0
15.07.2018 13:00:00 27,7 20,3 30,5 26,6 22,4 10 5 19 11 WZW 1015,1 19 41 0,0
15.07.2018 12:00:00 26,7 20,1 28,8 26,5 22,3 6 3 15 8 ZZW 1015,0 19 24 0,0
15.07.2018 11:00:00 25,0 20,5 28,0 26,6 22,3 7 4 15 8 ZW 1015,3 16 42 0,0
15.07.2018 10:00:00 23,3 20,6 24,1 26,7 22,3 5 3 10 5 ZZW 1015,5 13 22 0,0
15.07.2018 09:00:00 20,8 19,6 21,5 26,9 22,3 6 4 11 6 Z 1015,6 6 2 0,0
15.07.2018 08:00:00 20,5 17,9 19,1 27,1 22,3 4 2 6 4 ZZO 1015,3 28 14 0,0
15.07.2018 07:00:00 20,0 16,8 17,7 27,3 22,3 5 3 11 6 Z 1015,0 57 0 0,0
15.07.2018 06:00:00 20,0 17,0 17,3 27,5 22,3 2 1 8 4 ZZO 1014,8 47 0 0,0
15.07.2018 05:00:00 20,5 17,1 19,2 27,7 22,3 6 4 19 10 NNW 1014,6 51 0 0,0
15.07.2018 04:00:00 21,5 16,7 20,8 27,9 22,3 6 3 24 13 WNW 1015,1 57 0 0,0
15.07.2018 03:00:00 21,9 19,1 21,3 28,1 22,3 15 8 19 11 W 1015,1 24 0 0,0
15.07.2018 02:00:00 23,8 19,7 22,1 28,2 22,3 11 6 20 11 WZW 1015,3 24 0 0,0
15.07.2018 01:00:00 23,7 20,2 21,8 28,4 22,3 4 2 8 4 ONO 1015,2 26 0 0,0
15.07.2018 00:00:00 25,0 20,9 23,6 28,5 22,3 4 2 9 5 N 1015,2 31 0 0,0
14.07.2018 23:00:00 26,6 20,4 25,1 28,5 22,3 4 2 14 8 W 1015,1 38 0 0,0
14.07.2018 22:00:00 27,3 20,4 26,1 28,5 22,3 8 4 11 6 NW 1014,8 43 14 0,0
14.07.2018 21:00:00 30,1 18,5 29,7 28,3 22,3 3 2 13 7 Z 1014,2 59 4 0,0
14.07.2018 20:00:00 30,4 18,2 30,0 28,1 22,3 10 5 13 7 W 1014,2 60 19 0,0
14.07.2018 19:00:00 32,4 17,8 37,1 27,7 22,3 5 3 13 7 OZO 1014,1 60 60 0,0
14.07.2018 18:00:00 32,1 17,2 39,7 27,3 22,3 6 3 14 8 ZO 1014,4 19 60 0,0
14.07.2018 17:00:00 32,0 17,5 34,1 26,8 22,3 5 3 18 10 O 1014,8 58 53 0,0
14.07.2018 16:00:00 32,1 18,3 39,7 26,4 22,3 8 5 27 14 ZZO 1015,2 55 60 0,0
14.07.2018 15:00:00 31,0 18,0 33,7 26,0 22,3 9 5 16 9 N 1015,6 19 51 0,0
14.07.2018 14:00:00 30,5 19,2 36,0 25,8 22,3 7 4 16 8 O 1016,2 44 55 0,0
14.07.2018 13:00:00 29,2 18,9 37,2 25,6 22,3 3 2 11 6 ZW 1016,7 37 60 0,0
14.07.2018 12:00:00 28,0 19,5 34,5 25,5 22,3 2 1 9 5 ZW 1017,0 30 60 0,0
14.07.2018 11:00:00 27,0 19,9 30,0 25,5 22,3 4 2 16 9 NO 1017,1 20 60 0,0
14.07.2018 10:00:00 24,5 20,2 24,5 25,6 22,3 10 5 13 7 NO 1017,1 12 60 0,0
14.07.2018 09:00:00 21,7 19,3 21,8 25,8 22,3 7 4 10 5 ONO 1017,3 10 58 0,0
14.07.2018 08:00:00 20,0 19,0 18,3 25,9 22,3 2 1 13 7 N 1016,8 7 14 0,0
14.07.2018 07:00:00 19,3 18,5 18,3 26,1 22,3 3 1 17 9 ZO 1016,7 8 0 0,0
14.07.2018 06:00:00 19,6 18,9 19,0 26,2 22,2 8 5 11 6 OZO 1016,4 4,5 0 0,2
14.07.2018 05:00:00 20,5 18,8 18,8 26,4 22,3 5 3 24 13 WNW 1018,2 5 0 0,4
14.07.2018 04:00:00 19,9 18,2 19,0 26,6 22,3 0 0 7 4 N 1018,2 17 0 0,0
14.07.2018 03:00:00 21,6 18,8 19,9 26,7 22,3 0 0 8 4 N 1018,4 22 0 0,0
14.07.2018 02:00:00 20,8 18,7 19,8 26,9 22,3 2 1 9 5 OZO 1018,0 19 0 0,0
14.07.2018 01:00:00 21,4 18,8 20,0 27,0 22,3 0 0 4 2 N 1018,5 24 0 0,0
14.07.2018 00:00:00 22,1 18,9 19,3 27,1 22,2 3 2 7 4 NNW 1018,2 29 0 0,0
13.07.2018 23:00:00 23,5 18,6 21,6 27,2 22,3 0 0 14 7 N 1017,7 35 0 0,0

tt = temperatuur
td = dauwpunt
tt 5cm = temperatuur 5cm
tt -20cm = temperatuur -20cm
tt -100cm = temperatuur -100cm
ff = windsnelheid
fx = windstoten
dd = windrichting
ppp = luchtdruk
vv = zicht
sd = Zonneschijnduur
rr = neerslag

Weerstations in de omgeving